Station: Hindmarsh Island  

  Atmospheric Gas Attenuation - ITU Rec 676-11   ----------------- dB/100km -----------------
Date Time Temp RH % AH g/m3 Dew Point Wind Direction Speed kph Gust kph Barometer mB Rainfall Since 9am 24GHz 47GHz 76GHz 122GHz 134GHz 241GHz
07/09 02:50 12.4 84 9.18 9.8 20 26 1027.4 1.2 20.9 27.8 43.6 114.3 109.3 376.4
07/09 02:40 12.2 86 9.28 9.9 24 26 1027.3 1.2 21.1 28.1 44.1 115.7 111.0 382.3
07/09 02:30 11.9 88 9.32 10 26 33 1027.4 1.2 21.2 28.2 44.5 116.6 112.0 385.7
07/09 02:20 11.8 92 9.68 10.5 26 35 1027.3 1.2 22.0 28.9 46.1 120.9 117.3 404.0
07/09 02:10 12.1 93 9.97 11 20 20 1027.4 1.2 22.6 29.3 47.1 123.8 120.9 417.0
07/09 02:00 12.1 93 9.97 11 26 30 1027.5 1.2 22.6 29.3 47.1 123.8 121.0 417.0
07/09 01:50 11.9 94 9.96 11 26 28 1027.6 1.2 22.6 29.3 47.2 124.0 121.1 417.6
07/09 01:40 11.8 95 10 11 26 35 1027.7 1.2 22.7 29.5 47.5 124.7 121.9 420.2
07/09 01:30 11.8 94 9.89 10.9 37 43 1027.7 1.2 22.4 29.3 47.0 123.4 120.3 414.7
07/09 01:20 12.2 93 10.04 11.1 39 43 1027.4 1 22.7 29.4 47.4 124.5 121.8 419.9
07/09 01:10 12.3 94 10.21 11.4 22 28 1027.5 1 23.1 29.6 48.1 126.3 124.1 427.9
07/09 01:00 12.2 94 10.14 11.3 22 28 1027.4 1 23.0 29.6 47.8 125.6 123.2 424.9
07/09 00:50 12.2 93 10.04 11.1 28 35 1027.4 1 22.7 29.4 47.4 124.5 121.8 419.9
07/09 00:40 12.6 93 10.29 11.5 28 32 1027.3 0.8 23.3 29.7 48.2 126.7 124.7 430.2
07/09 00:30 12.4 94 10.27 11.5 26 30 1027.2 0.8 23.2 29.7 48.3 126.8 124.8 430.3
07/09 00:20 12.5 95 10.45 11.7 15 20 1027.1 0.8 23.6 30.0 49.0 128.7 127.2 438.8
07/09 00:10 12.5 95 10.45 11.7 19 20 1027.1 0.6 23.6 30.0 49.0 128.7 127.2 438.8
07/09 00:00 12 95 10.13 11.2 19 24 1027 0.6 22.9 29.6 47.9 125.8 123.4 425.4
06/09 23:50 12 95 10.13 11.2 17 26 1027 0.6 22.9 29.6 47.9 125.8 123.4 425.4
06/09 23:40 12.2 95 10.25 11.4 24 33 1027 0.6 23.2 29.7 48.3 126.9 124.8 430.4
06/09 23:30 12.4 94 10.27 11.5 19 24 1027.1 0.6 23.2 29.7 48.3 126.8 124.7 430.3
06/09 23:20 12.3 94 10.21 11.4 15 20 1027 0.6 23.1 29.6 48.0 126.2 124.0 427.8
06/09 23:10 12.3 95 10.32 11.5 13 17 1026.9 0.6 23.3 29.8 48.5 127.5 125.6 433.3
06/09 23:00 12.1 95 10.19 11.3 11 15 1026.9 0.6 23.1 29.7 48.1 126.3 124.1 427.9
06/09 22:50 11.9 94 9.96 11 13 17 1027 0.6 22.6 29.3 47.2 124.0 121.1 417.4
06/09 22:40 12 95 10.13 11.2 15 19 1027 0.4 22.9 29.6 47.9 125.8 123.4 425.4
06/09 22:30 12 95 10.13 11.2 19 24 1027.1 0.4 22.9 29.6 47.9 125.8 123.4 425.4
06/09 22:20 12 94 10.02 11.1 20 30 1027 0.4 22.7 29.4 47.4 124.5 121.8 419.9
06/09 22:10 12.3 95 10.32 11.5 17 20 1026.9 0.4 23.3 29.8 48.5 127.5 125.6 433.3
06/09 22:00 12.3 95 10.32 11.5 13 20 1026.8 0.4 23.3 29.8 48.5 127.5 125.6 433.3
06/09 21:50 12.2 95 10.25 11.4 17 20 1026.8 0.4 23.2 29.7 48.3 126.9 124.8 430.3
06/09 21:40 12.2 95 10.25 11.4 15 19 1026.6 0.4 23.2 29.7 48.3 126.8 124.7 430.2
06/09 21:30 12 95 10.13 11.2 11 15 1026.6 0.4 22.9 29.6 47.9 125.7 123.3 425.3
06/09 21:20 11.8 94 9.89 10.9 13 15 1026.5 0.4 22.4 29.2 46.9 123.3 120.2 414.3
06/09 21:10 11.9 94 9.96 11 15 17 1026.4 0.4 22.6 29.3 47.2 123.9 121.0 417.2
06/09 21:00 12.1 94 10.08 11.2 15 17 1026.3 0.4 22.8 29.4 47.6 125.0 122.4 422.1
06/09 20:50 12.3 94 10.21 11.4 15 19 1026.3 0.4 23.1 29.6 48.0 126.2 124.0 427.6
06/09 20:40 12.3 94 10.21 11.4 15 19 1026.2 0.4 23.1 29.6 48.0 126.1 124.0 427.5
06/09 20:30 12.2 94 10.14 11.3 9 15 1026.1 0.4 23.0 29.5 47.8 125.5 123.1 424.5
06/09 20:20 12.1 94 10.08 11.2 6 9 1026.1 0.4 22.8 29.4 47.6 124.9 122.4 422.0
06/09 20:10 12.2 94 10.14 11.3 15 20 1026.1 0.4 23.0 29.5 47.8 125.5 123.1 424.5
06/09 20:00 12.4 93 10.16 11.3 17 20 1026 0.2 23.0 29.5 47.7 125.4 123.1 424.4
06/09 19:50 12.5 92 10.12 11.2 17 22 1025.9 0 22.9 29.4 47.5 124.7 122.3 421.8
06/09 19:40 12.8 91 10.19 11.4 15 19 1025.8 0 23.0 29.4 47.6 125.1 122.8 423.6
06/09 19:30 12.7 90 10.02 11.1 15 17 1025.7 0 22.7 29.1 46.9 123.2 120.5 415.7
06/09 19:20 12.8 90 10.08 11.2 15 17 1025.7 0 22.8 29.2 47.1 123.8 121.2 418.1
06/09 19:10 12.7 90 10.02 11.1 13 17 1025.5 0 22.7 29.1 46.9 123.2 120.5 415.6
06/09 19:00 12.7 90 10.02 11.1 11 13 1025.5 0 22.7 29.1 46.9 123.2 120.5 415.6
06/09 18:50 12.8 91 10.19 11.4 13 15 1025.4 0 23.0 29.4 47.6 125.0 122.8 423.5
06/09 18:40 12.9 90 10.14 11.3 15 17 1025.3 0 22.9 29.2 47.3 124.3 121.9 420.4
06/09 18:30 13 90 10.21 11.4 15 20 1025.3 0 23.1 29.3 47.5 124.9 122.7 423.4
06/09 18:20 13 90 10.21 11.4 15 19 1025.1 0 23.1 29.3 47.5 124.9 122.7 423.3
06/09 18:10 13 89 10.09 11.2 17 20 1025 0 22.8 29.1 47.0 123.5 121.0 417.3
06/09 18:00 13 89 10.09 11.2 20 24 1024.9 0 22.8 29.1 47.0 123.5 121.0 417.3
06/09 17:50 13.2 88 10.1 11.3 20 24 1024.8 0 22.8 29.0 46.9 123.3 120.8 416.6
06/09 17:40 13.3 86 9.94 11 17 24 1024.7 0 22.5 28.7 46.2 121.3 118.4 408.2
06/09 17:30 13.6 83 9.77 10.8 17 20 1024.4 0 22.1 28.3 45.2 118.8 115.5 398.2
06/09 17:20 13.7 82 9.71 10.7 17 20 1024.5 0 22.0 28.2 44.9 118.0 114.5 394.8
06/09 17:10 13.8 80 9.53 10.4 17 22 1024.5 0 21.6 27.9 44.1 115.8 111.9 385.6
06/09 17:00 14 82 9.89 11 11 15 1024.4 0 22.3 28.4 45.5 119.6 116.6 402.0
06/09 16:50 13.9 81 9.71 10.7 13 15 1024.4 0 21.9 28.1 44.8 117.7 114.2 393.8
06/09 16:40 13.9 80 9.59 10.5 15 17 1024.2 0 21.7 27.9 44.3 116.3 112.6 387.9
06/09 16:30 14.1 80 9.71 10.7 17 20 1024.1 0 21.9 28.1 44.7 117.4 113.9 392.7
06/09 16:20 14 80 9.65 10.6 13 17 1023.9 0 21.8 28.0 44.5 116.8 113.2 390.2
06/09 16:10 14.2 80 9.77 10.8 13 17 1023.9 0 22.1 28.1 44.9 117.9 114.6 395.0
06/09 16:00 14.3 79 9.71 10.7 17 20 1023.9 0 21.9 28.0 44.6 117.0 113.6 391.6
06/09 15:50 14.5 81 10.07 11.3 15 17 1023.8 0 22.7 28.5 46.0 120.8 118.3 407.9
06/09 15:40 14.1 81 9.83 10.9 15 19 1023.8 0 22.2 28.2 45.2 118.7 115.5 398.4
06/09 15:30 14.2 80 9.77 10.8 17 20 1023.7 0 22.1 28.1 44.9 117.8 114.6 394.9
06/09 15:20 14.2 78 9.52 10.4 19 20 1023.6 0 21.5 27.7 43.8 115.0 111.1 382.9
06/09 15:10 14.6 75 9.39 10.2 15 17 1023.5 0 21.2 27.3 43.1 113.0 108.8 374.8
06/09 15:00 14.7 75 9.44 10.3 15 19 1023.5 0 21.3 27.4 43.2 113.4 109.3 376.6
06/09 14:50 14.4 74 9.15 9.8 15 20 1023.5 0 20.7 27.0 42.2 110.7 105.8 364.4
06/09 14:40 14.7 75 9.44 10.3 19 20 1023.4 0 21.3 27.4 43.2 113.4 109.3 376.6
06/09 14:30 14.8 72 9.12 9.8 19 22 1023.4 0 20.6 26.8 41.8 109.8 104.9 361.1
06/09 14:20 15.1 72 9.29 10.1 17 22 1023.3 0 21.0 27.0 42.4 111.2 106.7 367.6
06/09 14:10 14.8 70 8.87 9.4 17 20 1023.3 0 20.1 26.4 40.8 107.1 101.5 349.4
06/09 14:00 15.2 69 8.96 9.6 17 20 1023.3 0 20.3 26.4 41.0 107.5 102.2 351.8
06/09 13:50 15.6 69 9.18 9.9 13 19 1023.3 0 20.7 26.7 41.7 109.3 104.6 360.2
06/09 13:40 15.7 68 9.1 9.8 13 17 1023.4 0 20.5 26.5 41.3 108.3 103.4 356.1
06/09 13:30 15.2 67 8.7 9.1 11 15 1023.5 0 19.7 26.0 40.0 104.7 98.8 339.9
06/09 13:20 15.1 67 8.64 9 11 15 1023.4 0 19.6 26.0 39.8 104.2 98.1 337.5
06/09 13:10 15 71 9.1 9.8 11 15 1023.6 0 20.6 26.7 41.7 109.3 104.3 359.3
06/09 13:00 15.2 71 9.22 10 13 19 1023.7 0 20.8 26.9 42.1 110.3 105.7 364.0
06/09 12:50 15.6 73 9.71 10.8 13 19 1023.7 0 21.9 27.6 43.8 115.1 111.7 385.1
06/09 12:40 15.4 73 9.59 10.6 13 17 1023.7 0 21.6 27.4 43.5 114.1 110.4 380.4
06/09 12:30 15 72 9.23 10 13 17 1023.9 0 20.9 27.0 42.2 110.7 106.1 365.5
06/09 12:20 15 73 9.36 10.2 15 19 1023.9 0 21.1 27.2 42.7 112.2 107.8 371.6
06/09 12:10 15 76 9.75 10.8 17 20 1024.1 0 22.0 27.8 44.4 116.5 113.1 390.1
06/09 12:00 15.4 75 9.85 11 15 20 1024.2 0 22.2 27.9 44.5 117.0 113.9 392.9
06/09 11:50 14.9 71 9.05 9.7 11 15 1024.3 0 20.5 26.7 41.5 109.0 103.9 357.6
06/09 11:40 14.7 72 9.07 9.7 11 15 1024.4 0 20.5 26.8 41.7 109.5 104.4 359.5
06/09 11:30 14.7 72 9.07 9.7 9 13 1024.4 0 20.5 26.8 41.7 109.5 104.4 359.5
06/09 11:20 14.7 71 8.94 9.5 9 13 1024.4 0 20.3 26.6 41.2 108.1 102.7 353.4
06/09 11:10 14.6 72 9.01 9.6 9 13 1024.4 0 20.4 26.7 41.5 109.0 103.7 357.1
06/09 11:00 14.6 74 9.26 10 7 11 1024.3 0 20.9 27.2 42.6 111.7 107.1 368.9
06/09 10:50 14.4 73 9.02 9.6 9 13 1024.3 0 20.4 26.8 41.7 109.3 104.1 358.5
06/09 10:40 14.7 72 9.07 9.7 13 17 1024.3 0 20.5 26.8 41.7 109.5 104.4 359.5
06/09 10:30 14.9 77 9.81 10.9 19 22 1024.2 0 22.1 28.0 44.7 117.3 114.1 393.5
06/09 10:20 14.5 76 9.45 10.3 20 24 1024.3 0 21.4 27.5 43.4 113.9 109.8 378.3

Last Refresh: 07-Sep-2026 02:58:46

Bureau of Meteorology